Time,TemperatureF,DewpointF,PressureIn,WindDirection,WindDirectionDegrees,WindSpeedMPH,WindSpeedGustMPH,Humidity,HourlyPrecipIn,Conditions,Clouds,dailyrainin,SoftwareType,DateUTC
2013-06-04 00:03:00,62.0,55.0,-100.00,SE,145,0.0,2.0,76,0.00,,,-99.99,,2013-06-04 04:03:00,
2013-06-04 00:13:00,62.0,55.0,-100.00,SSE,155,0.0,2.0,78,0.00,,,-99.99,,2013-06-04 04:13:00,
2013-06-04 00:23:00,61.0,55.0,-100.00,ESE,120,0.0,1.0,81,0.00,,,-99.99,,2013-06-04 04:23:00,
2013-06-04 00:33:00,60.0,55.0,-100.00,ESE,120,0.0,1.0,83,0.00,,,-99.99,,2013-06-04 04:33:00,
2013-06-04 00:42:00,60.0,55.0,-100.00,ESE,105,0.0,1.0,84,0.00,,,-99.99,,2013-06-04 04:42:00,
2013-06-04 00:53:00,59.0,55.0,-100.00,ESE,115,0.0,1.0,86,0.00,,,-99.99,,2013-06-04 04:53:00,
2013-06-04 01:02:00,58.0,55.0,-100.00,East,80,0.0,0.0,87,0.00,,,-99.99,,2013-06-04 05:02:00,
2013-06-04 01:12:00,58.0,55.0,-100.00,ENE,75,0.0,0.0,87,0.00,,,-99.99,,2013-06-04 05:12:00,
2013-06-04 01:22:00,58.0,55.0,-100.00,NE,35,0.0,0.0,88,0.00,,,-99.99,,2013-06-04 05:22:00,
2013-06-04 01:32:00,58.0,55.0,-100.00,NNE,25,0.0,0.0,88,0.00,,,-99.99,,2013-06-04 05:32:00,
2013-06-04 01:42:00,58.0,54.0,-100.00,NNE,30,0.0,1.0,88,0.00,,,-99.99,,2013-06-04 05:42:00,
2013-06-04 01:52:00,57.0,54.0,-100.00,NNE,25,0.0,0.0,88,0.00,,,-99.99,,2013-06-04 05:52:00,
2013-06-04 02:02:00,57.0,54.0,-100.00,NNE,25,0.0,0.0,89,0.00,,,-99.99,,2013-06-04 06:02:00,
2013-06-04 02:12:00,56.0,54.0,-100.00,NE,50,0.0,0.0,89,0.00,,,-99.99,,2013-06-04 06:12:00,
2013-06-04 02:22:00,56.0,53.0,-100.00,NE,50,0.0,0.0,90,0.00,,,-99.99,,2013-06-04 06:22:00,
2013-06-04 02:32:00,56.0,53.0,-100.00,ENE,65,0.0,0.0,90,0.00,,,-99.99,,2013-06-04 06:32:00,
2013-06-04 02:42:00,56.0,53.0,-100.00,NNE,20,0.0,0.0,90,0.00,,,-99.99,,2013-06-04 06:42:00,
2013-06-04 02:52:00,56.0,53.0,-100.00,NE,45,0.0,0.0,90,0.00,,,-99.99,,2013-06-04 06:52:00,
2013-06-04 03:02:00,56.0,53.0,-100.00,NE,45,0.0,0.0,91,0.00,,,-99.99,,2013-06-04 07:02:00,
2013-06-04 03:12:00,55.0,53.0,-100.00,NE,45,0.0,0.0,91,0.00,,,-99.99,,2013-06-04 07:12:00,
2013-06-04 03:22:00,55.0,53.0,-100.00,NE,40,0.0,0.0,91,0.00,,,-99.99,,2013-06-04 07:22:00,
2013-06-04 03:32:00,55.0,53.0,-100.00,NE,40,0.0,0.0,91,0.00,,,-99.99,,2013-06-04 07:32:00,
2013-06-04 03:42:00,55.0,53.0,-100.00,ENE,60,0.0,0.0,91,0.00,,,-99.99,,2013-06-04 07:42:00,
2013-06-04 03:52:00,55.0,53.0,-100.00,NNE,30,0.0,0.0,91,0.00,,,-99.99,,2013-06-04 07:52:00,
2013-06-04 04:02:00,55.0,53.0,-100.00,NE,35,0.0,0.0,92,0.00,,,-99.99,,2013-06-04 08:02:00,
2013-06-04 04:12:00,55.0,53.0,-100.00,North,10,0.0,0.0,92,0.00,,,-99.99,,2013-06-04 08:12:00,
2013-06-04 04:22:00,54.0,52.0,-100.00,East,95,0.0,1.0,92,0.00,,,-99.99,,2013-06-04 08:22:00,
2013-06-04 04:32:00,54.0,52.0,-100.00,NE,45,0.0,1.0,92,0.00,,,-99.99,,2013-06-04 08:32:00,
2013-06-04 04:42:00,54.0,52.0,-100.00,SE,130,0.0,2.0,92,0.00,,,-99.99,,2013-06-04 08:42:00,
2013-06-04 04:52:00,54.0,52.0,-100.00,SE,130,0.0,2.0,92,0.00,,,-99.99,,2013-06-04 08:52:00,
2013-06-04 05:02:00,54.0,52.0,-100.00,ESE,115,0.0,0.0,92,0.00,,,-99.99,,2013-06-04 09:02:00,
2013-06-04 05:12:00,54.0,52.0,-100.00,SE,135,0.0,0.0,92,0.00,,,-99.99,,2013-06-04 09:12:00,
2013-06-04 05:22:00,54.0,52.0,-100.00,SE,140,0.0,1.0,92,0.00,,,-99.99,,2013-06-04 09:22:00,
2013-06-04 05:33:00,54.0,52.0,-100.00,South,170,0.0,2.0,92,0.00,,,-99.99,,2013-06-04 09:33:00,
2013-06-04 05:43:00,54.0,51.0,-100.00,SE,145,0.0,1.0,91,0.00,,,-99.99,,2013-06-04 09:43:00,
2013-06-04 05:53:00,54.0,51.0,-100.00,SE,140,0.0,2.0,90,0.00,,,-99.99,,2013-06-04 09:53:00,
2013-06-04 06:03:00,54.0,51.0,-100.00,SSE,150,0.0,0.0,90,0.00,,,-99.99,,2013-06-04 10:03:00,
2013-06-04 06:12:00,54.0,51.0,-100.00,ESE,115,0.0,1.0,90,0.00,,,-99.99,,2013-06-04 10:12:00,
2013-06-04 06:23:00,53.0,51.0,-100.00,East,95,0.0,1.0,90,0.00,,,-99.99,,2013-06-04 10:23:00,
2013-06-04 06:33:00,53.0,51.0,-100.00,SE,135,0.0,1.0,89,0.00,,,-99.99,,2013-06-04 10:33:00,
2013-06-04 06:42:00,53.0,50.0,-100.00,SE,140,0.0,0.0,89,0.00,,,-99.99,,2013-06-04 10:42:00,
2013-06-04 06:52:00,53.0,50.0,-100.00,SE,140,0.0,1.0,88,0.00,,,-99.99,,2013-06-04 10:52:00,
2013-06-04 07:02:00,53.0,50.0,-100.00,SE,125,0.0,2.0,88,0.00,,,-99.99,,2013-06-04 11:02:00,
2013-06-04 07:12:00,54.0,50.0,-100.00,East,100,0.0,3.0,86,0.00,,,-99.99,,2013-06-04 11:12:00,
2013-06-04 07:22:00,54.0,49.0,-100.00,SE,130,0.0,1.0,85,0.00,,,-99.99,,2013-06-04 11:22:00,
2013-06-04 07:32:00,54.0,49.0,-100.00,East,95,0.0,3.0,83,0.00,,,-99.99,,2013-06-04 11:32:00,
2013-06-04 07:42:00,55.0,49.0,-100.00,West,275,0.0,2.0,81,0.00,,,-99.99,,2013-06-04 11:42:00,
2013-06-04 07:52:00,55.0,49.0,-100.00,South,185,1.0,4.0,80,0.00,,,-99.99,,2013-06-04 11:52:00,
2013-06-04 08:02:00,56.0,49.0,-100.00,West,260,0.0,2.0,77,0.00,,,-99.99,,2013-06-04 12:02:00,
2013-06-04 08:12:00,57.0,49.0,-100.00,ESE,105,0.0,2.0,75,0.00,,,-99.99,,2013-06-04 12:12:00,
2013-06-04 08:22:00,57.0,49.0,-100.00,East,90,0.0,4.0,73,0.00,,,-99.99,,2013-06-04 12:22:00,
2013-06-04 08:32:00,58.0,49.0,-100.00,South,170,0.0,3.0,72,0.00,,,-99.99,,2013-06-04 12:32:00,
2013-06-04 08:42:00,59.0,49.0,-100.00,East,100,0.0,3.0,69,0.00,,,-99.99,,2013-06-04 12:42:00,
2013-06-04 08:52:00,60.0,49.0,-100.00,South,170,1.0,3.0,67,0.00,,,-99.99,,2013-06-04 12:52:00,
2013-06-04 09:03:00,60.0,49.0,-100.00,East,90,1.0,4.0,66,0.00,,,-99.99,,2013-06-04 13:03:00,
2013-06-04 09:12:00,61.0,49.0,-100.00,East,80,2.0,8.0,64,0.00,,,-99.99,,2013-06-04 13:12:00,
2013-06-04 09:22:00,61.0,48.0,-100.00,ENE,70,2.0,7.0,62,0.00,,,-99.99,,2013-06-04 13:22:00,
2013-06-04 09:32:00,62.0,48.0,-100.00,ESE,120,2.0,5.0,60,0.00,,,-99.99,,2013-06-04 13:32:00,
2013-06-04 09:42:00,63.0,49.0,-100.00,ESE,105,1.0,4.0,59,0.00,,,-99.99,,2013-06-04 13:42:00,
2013-06-04 09:52:00,64.0,49.0,-100.00,NE,55,1.0,4.0,56,0.00,,,-99.99,,2013-06-04 13:52:00,
2013-06-04 10:02:00,65.0,48.0,-100.00,ESE,115,2.0,6.0,55,0.00,,,-99.99,,2013-06-04 14:02:00,
2013-06-04 10:12:00,66.0,49.0,-100.00,East,90,1.0,4.0,54,0.00,,,-99.99,,2013-06-04 14:12:00,
2013-06-04 10:22:00,66.0,47.0,-100.00,ESE,110,1.0,6.0,51,0.00,,,-99.99,,2013-06-04 14:22:00,
2013-06-04 10:32:00,67.0,48.0,-100.00,East,85,2.0,7.0,50,0.00,,,-99.99,,2013-06-04 14:32:00,
2013-06-04 10:42:00,67.0,49.0,-100.00,ENE,60,1.0,6.0,51,0.00,,,-99.99,,2013-06-04 14:42:00,
2013-06-04 10:52:00,68.0,47.0,-100.00,NE,55,1.0,8.0,47,0.00,,,-99.99,,2013-06-04 14:52:00,
2013-06-04 11:02:00,69.0,48.0,-100.00,ESE,115,1.0,10.0,47,0.00,,,-99.99,,2013-06-04 15:02:00,
2013-06-04 11:12:00,69.0,48.0,-100.00,ESE,105,2.0,6.0,47,0.00,,,-99.99,,2013-06-04 15:12:00,
2013-06-04 11:22:00,69.0,47.0,-100.00,South,190,1.0,6.0,45,0.00,,,-99.99,,2013-06-04 15:22:00,
2013-06-04 11:33:00,70.0,49.0,-100.00,ENE,70,2.0,6.0,46,0.00,,,-99.99,,2013-06-04 15:33:00,
2013-06-04 11:42:00,70.0,48.0,-100.00,SSE,155,2.0,6.0,46,0.00,,,-99.99,,2013-06-04 15:42:00,
2013-06-04 11:53:00,70.0,48.0,-100.00,East,80,1.0,8.0,45,0.00,,,-99.99,,2013-06-04 15:53:00,
2013-06-04 12:03:00,71.0,48.0,-100.00,SE,145,2.0,6.0,44,0.00,,,-99.99,,2013-06-04 16:03:00,
2013-06-04 12:13:00,70.0,49.0,-100.00,SSE,165,3.0,7.0,47,0.00,,,-99.99,,2013-06-04 16:13:00,
2013-06-04 12:23:00,73.0,50.0,-100.00,ESE,105,2.0,6.0,45,0.00,,,-99.99,,2013-06-04 16:23:00,
2013-06-04 12:33:00,72.0,47.0,-100.00,ENE,60,2.0,6.0,42,0.00,,,-99.99,,2013-06-04 16:33:00,
2013-06-04 12:42:00,71.0,48.0,-100.00,SE,140,3.0,7.0,44,0.00,,,-99.99,,2013-06-04 16:42:00,
2013-06-04 12:52:00,72.0,48.0,-100.00,East,85,2.0,6.0,41,0.00,,,-99.99,,2013-06-04 16:52:00,
2013-06-04 13:03:00,72.0,48.0,-100.00,East,100,4.0,9.0,42,0.00,,,-99.99,,2013-06-04 17:03:00,
2013-06-04 13:12:00,74.0,49.0,-100.00,ENE,70,2.0,4.0,41,0.00,,,-99.99,,2013-06-04 17:12:00,
2013-06-04 13:23:00,74.0,49.0,-100.00,SSW,200,1.0,7.0,41,0.00,,,-99.99,,2013-06-04 17:23:00,
2013-06-04 13:33:00,73.0,49.0,-100.00,SSE,165,3.0,7.0,43,0.00,,,-99.99,,2013-06-04 17:33:00,
2013-06-04 13:42:00,74.0,48.0,-100.00,South,175,2.0,6.0,39,0.00,,,-99.99,,2013-06-04 17:42:00,
2013-06-04 13:52:00,74.0,49.0,-100.00,NNE,30,1.0,6.0,40,0.00,,,-99.99,,2013-06-04 17:52:00,
2013-06-04 14:02:00,75.0,47.0,-100.00,SSE,160,1.0,4.0,37,0.00,,,-99.99,,2013-06-04 18:02:00,
2013-06-04 14:12:00,75.0,49.0,-100.00,East,90,1.0,7.0,40,0.00,,,-99.99,,2013-06-04 18:12:00,
2013-06-04 14:22:00,75.0,47.0,-100.00,ENE,75,2.0,9.0,36,0.00,,,-99.99,,2013-06-04 18:22:00,
2013-06-04 14:32:00,76.0,48.0,-100.00,WNW,290,1.0,3.0,36,0.00,,,-99.99,,2013-06-04 18:32:00,
2013-06-04 14:42:00,75.0,47.0,-100.00,ESE,105,2.0,6.0,36,0.00,,,-99.99,,2013-06-04 18:42:00,
2013-06-04 14:52:00,76.0,48.0,-100.00,ESE,105,1.0,6.0,36,0.00,,,-99.99,,2013-06-04 18:52:00,
2013-06-04 15:02:00,75.0,49.0,-100.00,SSE,150,4.0,7.0,38,0.00,,,-99.99,,2013-06-04 19:02:00,
2013-06-04 15:12:00,75.0,48.0,-100.00,SSW,210,2.0,5.0,37,0.00,,,-99.99,,2013-06-04 19:12:00,
2013-06-04 15:22:00,77.0,47.0,-100.00,ENE,75,1.0,6.0,34,0.00,,,-99.99,,2013-06-04 19:22:00,
2013-06-04 15:33:00,77.0,47.0,-100.00,ESE,120,1.0,8.0,35,0.00,,,-99.99,,2013-06-04 19:33:00,
2013-06-04 15:42:00,78.0,49.0,-100.00,East,85,1.0,4.0,36,0.00,,,-99.99,,2013-06-04 19:42:00,
2013-06-04 15:52:00,78.0,47.0,-100.00,ESE,110,1.0,6.0,34,0.00,,,-99.99,,2013-06-04 19:52:00,
2013-06-04 16:03:00,77.0,47.0,-100.00,SE,125,1.0,4.0,35,0.00,,,-99.99,,2013-06-04 20:03:00,
2013-06-04 16:13:00,78.0,47.0,-100.00,SE,130,2.0,6.0,34,0.00,,,-99.99,,2013-06-04 20:13:00,
2013-06-04 16:22:00,78.0,46.0,-100.00,SE,125,2.0,7.0,32,0.00,,,-99.99,,2013-06-04 20:22:00,
2013-06-04 16:32:00,79.0,48.0,-100.00,East,95,1.0,4.0,33,0.00,,,-99.99,,2013-06-04 20:32:00,
2013-06-04 16:42:00,80.0,48.0,-100.00,ENE,70,1.0,5.0,33,0.00,,,-99.99,,2013-06-04 20:42:00,
2013-06-04 16:52:00,78.0,45.0,-100.00,ENE,60,1.0,6.0,30,0.00,,,-99.99,,2013-06-04 20:52:00,
2013-06-04 17:02:00,79.0,47.0,-100.00,SSE,155,2.0,5.0,32,0.00,,,-99.99,,2013-06-04 21:02:00,
2013-06-04 17:12:00,79.0,48.0,-100.00,SE,130,1.0,5.0,32,0.00,,,-99.99,,2013-06-04 21:12:00,
2013-06-04 17:22:00,80.0,48.0,-100.00,South,180,1.0,5.0,32,0.00,,,-99.99,,2013-06-04 21:22:00,
2013-06-04 17:33:00,80.0,49.0,-100.00,ENE,60,1.0,7.0,33,0.00,,,-99.99,,2013-06-04 21:33:00,
2013-06-04 17:42:00,80.0,49.0,-100.00,ENE,60,1.0,4.0,34,0.00,,,-99.99,,2013-06-04 21:42:00,
2013-06-04 17:53:00,79.0,47.0,-100.00,East,90,1.0,5.0,33,0.00,,,-99.99,,2013-06-04 21:53:00,
2013-06-04 18:02:00,78.0,47.0,-100.00,ENE,75,1.0,6.0,33,0.00,,,-99.99,,2013-06-04 22:02:00,
2013-06-04 18:13:00,78.0,47.0,-100.00,East,80,1.0,6.0,32,0.00,,,-99.99,,2013-06-04 22:13:00,
2013-06-04 18:22:00,78.0,47.0,-100.00,SSE,155,4.0,6.0,34,0.00,,,-99.99,,2013-06-04 22:22:00,
2013-06-04 18:32:00,78.0,48.0,-100.00,East,85,1.0,4.0,34,0.00,,,-99.99,,2013-06-04 22:32:00,
2013-06-04 18:42:00,78.0,47.0,-100.00,East,85,1.0,4.0,33,0.00,,,-99.99,,2013-06-04 22:42:00,
2013-06-04 18:52:00,78.0,47.0,-100.00,ENE,70,1.0,6.0,34,0.00,,,-99.99,,2013-06-04 22:52:00,
2013-06-04 19:02:00,78.0,46.0,-100.00,WSW,240,0.0,3.0,32,0.00,,,-99.99,,2013-06-04 23:02:00,
2013-06-04 19:12:00,78.0,48.0,-100.00,East,100,0.0,2.0,35,0.00,,,-99.99,,2013-06-04 23:12:00,
2013-06-04 19:22:00,76.0,48.0,-100.00,ESE,115,1.0,3.0,37,0.00,,,-99.99,,2013-06-04 23:22:00,
2013-06-04 19:32:00,76.0,49.0,-100.00,ESE,120,1.0,5.0,38,0.00,,,-99.99,,2013-06-04 23:32:00,
2013-06-04 19:42:00,76.0,49.0,-100.00,ESE,110,1.0,2.0,38,0.00,,,-99.99,,2013-06-04 23:42:00,
2013-06-04 19:52:00,75.0,49.0,-100.00,ESE,105,1.0,4.0,39,0.00,,,-99.99,,2013-06-04 23:52:00,
2013-06-04 20:02:00,74.0,50.0,-100.00,ENE,70,0.0,6.0,42,0.00,,,-99.99,,2013-06-05 00:02:00,
2013-06-04 20:12:00,73.0,48.0,-100.00,NE,50,1.0,3.0,40,0.00,,,-99.99,,2013-06-05 00:12:00,
2013-06-04 20:22:00,72.0,48.0,-100.00,North,5,0.0,0.0,42,0.00,,,-99.99,,2013-06-05 00:22:00,
2013-06-04 20:33:00,71.0,49.0,-100.00,SSW,205,0.0,1.0,44,0.00,,,-99.99,,2013-06-05 00:33:00,
2013-06-04 20:42:00,71.0,47.0,-100.00,South,190,0.0,1.0,43,0.00,,,-99.99,,2013-06-05 00:42:00,
2013-06-04 20:52:00,70.0,47.0,-100.00,NNE,25,1.0,2.0,43,0.00,,,-99.99,,2013-06-05 00:52:00,
2013-06-04 21:02:00,69.0,51.0,-100.00,NE,50,1.0,2.0,53,0.00,,,-99.99,,2013-06-05 01:02:00,
2013-06-04 21:12:00,66.0,48.0,-100.00,ESE,105,1.0,3.0,52,0.00,,,-99.99,,2013-06-05 01:12:00,
2013-06-04 21:22:00,65.0,50.0,-100.00,ENE,70,0.0,4.0,59,0.00,,,-99.99,,2013-06-05 01:22:00,
2013-06-04 21:32:00,64.0,50.0,-100.00,ESE,115,1.0,3.0,60,0.00,,,-99.99,,2013-06-05 01:32:00,
2013-06-04 21:42:00,63.0,51.0,-100.00,ENE,70,0.0,2.0,65,0.00,,,-99.99,,2013-06-05 01:42:00,
2013-06-04 21:52:00,62.0,51.0,-100.00,East,85,0.0,1.0,65,0.00,,,-99.99,,2013-06-05 01:52:00,
2013-06-04 22:02:00,62.0,50.0,-100.00,East,90,1.0,4.0,65,0.00,,,-99.99,,2013-06-05 02:02:00,
2013-06-04 22:12:00,61.0,51.0,-100.00,East,100,1.0,3.0,68,0.00,,,-99.99,,2013-06-05 02:12:00,
2013-06-04 22:22:00,61.0,51.0,-100.00,East,100,1.0,3.0,68,0.00,,,-99.99,,2013-06-05 02:22:00,
2013-06-04 22:32:00,60.0,51.0,-100.00,NNE,20,0.0,2.0,70,0.00,,,-99.99,,2013-06-05 02:32:00,
2013-06-04 22:42:00,60.0,51.0,-100.00,ENE,65,0.0,3.0,71,0.00,,,-99.99,,2013-06-05 02:42:00,
2013-06-04 22:52:00,60.0,51.0,-100.00,East,80,0.0,1.0,72,0.00,,,-99.99,,2013-06-05 02:52:00,
2013-06-04 23:02:00,59.0,51.0,-100.00,East,80,0.0,2.0,74,0.00,,,-99.99,,2013-06-05 03:02:00,
2013-06-04 23:12:00,59.0,51.0,-100.00,ENE,75,0.0,2.0,77,0.00,,,-99.99,,2013-06-05 03:12:00,
2013-06-04 23:22:00,58.0,52.0,-100.00,East,85,0.0,2.0,78,0.00,,,-99.99,,2013-06-05 03:22:00,
2013-06-04 23:33:00,58.0,52.0,-100.00,East,95,0.0,2.0,80,0.00,,,-99.99,,2013-06-05 03:33:00,
2013-06-04 23:43:00,57.0,51.0,-100.00,East,90,0.0,1.0,81,0.00,,,-99.99,,2013-06-05 03:43:00,
2013-06-04 23:53:00,57.0,52.0,-100.00,East,95,0.0,2.0,82,0.00,,,-99.99,,2013-06-05 03:53:00,